STARLINK-5276, 55399

Orbit data source: Space-Track

STARLINK-5276, 55399 is a payload satellite owned by SpaceX/Seattle (US) in LEO that was launched on Tue, 31 Jan 2023 UTC via an FALCON 9 launch vehicle from the Air Force Western Test Range (AFWTR). Payload-class satellites include a variety of spacecraft equipped with specific instruments for various scientific and technological missions. These include communications satellites like Starlink; space stations such as the ISS; scientific satellites like the Hubble; Earth observation satellites from companies like Planet Labs, Umbra, and HawkEye 360; GPS; miniature CubeSats for education and research; and military/defense satellites.

Loading next visibility...
Identifier
55399, 2023-014J
Orbit
LEO
Country
Flag of USUS
Related business
Manufacturer
SpaceX/Seattle
Mission
Operational Commercial Communications
Bus & Motor
STARLINK, Unknown motor
Mass
305 kg wet, ~290 kg dry
Launch date (UTC)
2023-01-31 (3 years ago)
Launch vehicle
FALCON 9
Launch site
Air Force Western Test Range (AFWTR)
Object type
Payload
Rocket body
Debris
Shape & HBR
Box + 1 Pan, 10.1 m
Radar Cross Section
13.562 m², Large (>1 m²)

Expand to show TLE details & history
Last TLE update: 2 days ago

TLE from 2 days ago
0 STARLINK-5276
1 55399U 23014J   26171.40689632  .00000190  00000-0  23749-4 0  9995
2 55399  69.9994 165.3793 0003692 267.9507  92.1230 14.98330178187444
Epoch: 2026-06-20T09:45Z
TLE epoch observation values (Epoch: 2026-06-20T09:45:55.842Z)
Latitude
0.00007°
Longitude
110.27468°
Altitude
574.575 km
Speed
7.574 km/s
True Right ascension
11h 01m 31s
True Declination
0° 00' 00"
Sunlit
Object was in daylight at epoch
Visualization orbit readout
Latitude
Unknown
Longitude
Unknown
Altitude
Unknown
Speed
Unknown
Apparent Right ascension
Unknown
Apparent Declination
Unknown
Sunlit
N/A
Visualization observer readout
Local Sidereal Time
21:32:28
Azimuth
Unknown
Elevation
Unknown
Doppler factor
Unknown
Orbital elements
Apogee altitude
572.569 km
Perigee altitude
567.438 km
Semi-major axis
6,948.141 km
Eccentricity
0.00037
Inclination
69.9994°
RAAN
165.3793°
Arg. of periapsis
267.9507°
True anomaly
92.16528°
Mean anomaly
92.123°
Eccentric anomaly
92.14414°
Mean motion
3.74749 °/min
Orbital period
96.06 mins
BSTAR
0.000023749
Loading maneuver chart data...
Computing Atmospheric mass density...

Documentation

Showing up to 5 results
|